Time,TemperatureF,DewpointF,PressureIn,WindDirection,WindDirectionDegrees,WindSpeedMPH,WindSpeedGustMPH,Humidity,HourlyPrecipIn,Conditions,Clouds,dailyrainin,SoftwareType,DateUTC
2013-07-30 00:03:00,60.0,56.0,30.13,SW,218,0.0,0.0,86,0.00,,,0.02,,2013-07-30 05:03:00,
2013-07-30 00:13:00,62.0,57.0,30.13,SW,218,0.0,1.0,83,0.00,,,0.02,,2013-07-30 05:13:00,
2013-07-30 00:23:00,62.0,57.0,30.13,SW,218,0.0,1.0,83,0.00,,,0.02,,2013-07-30 05:23:00,
2013-07-30 00:33:00,60.0,55.0,30.13,SW,218,0.0,1.0,84,0.00,,,0.02,,2013-07-30 05:33:00,
2013-07-30 00:45:00,60.0,56.0,30.12,SW,218,0.0,1.0,87,0.00,,,0.02,,2013-07-30 05:45:00,
2013-07-30 00:52:00,60.0,56.0,30.12,SW,218,0.0,1.0,87,0.00,,,0.02,,2013-07-30 05:52:00,
2013-07-30 01:03:00,61.0,57.0,30.12,SW,218,2.0,5.0,87,0.00,,,0.02,,2013-07-30 06:03:00,
2013-07-30 01:13:00,61.0,57.0,30.12,SW,218,2.0,5.0,87,0.00,,,0.02,,2013-07-30 06:13:00,
2013-07-30 01:23:00,61.0,57.0,30.13,SW,218,0.0,1.0,86,0.00,,,0.01,,2013-07-30 06:23:00,
2013-07-30 01:33:00,61.0,57.0,30.13,SW,218,0.0,0.0,87,0.00,,,0.01,,2013-07-30 06:33:00,
2013-07-30 01:43:00,60.0,56.0,30.13,SW,218,0.0,0.0,88,0.00,,,0.01,,2013-07-30 06:43:00,
2013-07-30 01:53:00,60.0,56.0,30.13,SW,218,0.0,0.0,88,0.00,,,0.01,,2013-07-30 06:53:00,
2013-07-30 02:03:00,61.0,58.0,30.13,SW,218,0.0,1.0,90,0.00,,,0.01,,2013-07-30 07:03:00,
2013-07-30 02:13:00,61.0,58.0,30.13,SW,218,0.0,1.0,90,0.00,,,0.01,,2013-07-30 07:13:00,
2013-07-30 02:23:00,61.0,58.0,30.13,SW,218,0.0,1.0,90,0.00,,,0.01,,2013-07-30 07:23:00,
2013-07-30 02:33:00,62.0,59.0,30.13,SW,218,0.0,1.0,89,0.00,,,0.01,,2013-07-30 07:33:00,
2013-07-30 02:43:00,62.0,59.0,30.13,SW,218,0.0,0.0,89,0.00,,,0.01,,2013-07-30 07:43:00,
2013-07-30 02:53:00,62.0,59.0,30.13,SW,218,0.0,0.0,89,0.00,,,0.01,,2013-07-30 07:53:00,
2013-07-30 03:03:00,62.0,59.0,30.13,SSW,207,0.0,4.0,89,0.00,,,0.01,,2013-07-30 08:03:00,
2013-07-30 03:13:00,62.0,59.0,30.13,SSW,203,0.0,5.0,89,0.00,,,0.01,,2013-07-30 08:13:00,
2013-07-30 03:23:00,62.0,59.0,30.13,SSW,203,0.0,5.0,89,0.00,,,0.01,,2013-07-30 08:23:00,
2013-07-30 03:33:00,63.0,59.0,30.13,SSW,202,0.0,7.0,88,0.00,,,0.01,,2013-07-30 08:33:00,
2013-07-30 03:43:00,63.0,59.0,30.12,SE,142,2.0,5.0,87,0.00,,,0.01,,2013-07-30 08:43:00,
2013-07-30 03:53:00,63.0,59.0,30.12,SE,142,2.0,5.0,87,0.00,,,0.01,,2013-07-30 08:53:00,
2013-07-30 04:03:00,63.0,59.0,30.12,SE,142,0.0,0.0,87,0.00,,,0.01,,2013-07-30 09:03:00,
2013-07-30 04:13:00,63.0,59.0,30.12,SE,142,0.0,0.0,88,0.00,,,0.01,,2013-07-30 09:13:00,
2013-07-30 04:23:00,63.0,59.0,30.12,SE,142,0.0,0.0,88,0.00,,,0.01,,2013-07-30 09:23:00,
2013-07-30 04:33:00,62.0,58.0,30.12,SE,142,2.0,4.0,88,0.00,,,0.01,,2013-07-30 09:33:00,
2013-07-30 04:43:00,62.0,58.0,30.12,SE,142,0.0,1.0,88,0.00,,,0.01,,2013-07-30 09:43:00,
2013-07-30 04:53:00,62.0,58.0,30.12,SE,142,0.0,1.0,88,0.00,,,0.01,,2013-07-30 09:53:00,
2013-07-30 05:03:00,62.0,58.0,30.12,SE,144,3.0,5.0,88,0.00,,,0.01,,2013-07-30 10:03:00,
2013-07-30 05:12:00,63.0,59.0,30.13,SSE,151,4.0,7.0,86,0.00,,,0.01,,2013-07-30 10:12:00,
2013-07-30 05:23:00,63.0,59.0,30.13,SSE,151,4.0,7.0,86,0.00,,,0.01,,2013-07-30 10:23:00,
2013-07-30 05:32:00,63.0,59.0,30.13,SSE,151,3.0,5.0,86,0.00,,,0.01,,2013-07-30 10:32:00,
2013-07-30 05:44:00,63.0,59.0,30.13,SSE,149,2.0,6.0,86,0.00,,,0.01,,2013-07-30 10:44:00,
2013-07-30 05:52:00,63.0,59.0,30.13,SSE,149,2.0,6.0,86,0.00,,,0.01,,2013-07-30 10:52:00,
2013-07-30 06:02:00,63.0,59.0,30.13,SSE,149,0.0,0.0,86,0.00,,,0.01,,2013-07-30 11:02:00,
2013-07-30 06:11:00,63.0,59.0,30.13,SSE,149,0.0,0.0,87,0.00,,,0.01,,2013-07-30 11:11:00,
2013-07-30 06:22:00,63.0,59.0,30.13,SSE,149,0.0,0.0,87,0.00,,,0.01,,2013-07-30 11:22:00,
2013-07-30 06:33:00,63.0,60.0,30.13,SE,127,0.0,0.0,89,0.00,,,0.01,,2013-07-30 11:33:00,
2013-07-30 06:43:00,63.0,59.0,30.12,SE,127,0.0,1.0,88,0.00,,,0.01,,2013-07-30 11:43:00,
2013-07-30 06:53:00,63.0,59.0,30.12,SE,127,0.0,1.0,88,0.00,,,0.01,,2013-07-30 11:53:00,
2013-07-30 07:12:00,63.0,59.0,30.12,SE,127,0.0,4.0,88,0.00,,,0.01,,2013-07-30 12:12:00,
2013-07-30 07:22:00,64.0,60.0,30.13,SE,127,0.0,1.0,86,0.00,,,0.00,,2013-07-30 12:22:00,
2013-07-30 07:33:00,65.0,60.0,30.12,SE,127,4.0,7.0,83,0.00,,,0.00,,2013-07-30 12:33:00,
2013-07-30 07:42:00,65.0,60.0,30.12,SE,127,4.0,7.0,83,0.00,,,0.00,,2013-07-30 12:42:00,
2013-07-30 07:53:00,65.0,59.0,30.13,SE,127,4.0,7.0,81,0.00,,,0.00,,2013-07-30 12:53:00,
2013-07-30 08:02:00,66.0,60.0,30.13,SE,127,0.0,6.0,80,0.00,,,0.00,,2013-07-30 13:02:00,
2013-07-30 08:12:00,66.0,60.0,30.13,SE,127,0.0,6.0,80,0.00,,,0.00,,2013-07-30 13:12:00,
2013-07-30 08:22:00,66.0,60.0,30.13,SE,127,0.0,0.0,82,0.00,,,0.00,,2013-07-30 13:22:00,
2013-07-30 08:32:00,66.0,60.0,30.14,SE,127,0.0,5.0,81,0.00,,,0.00,,2013-07-30 13:32:00,
2013-07-30 08:43:00,66.0,60.0,30.14,SE,127,0.0,5.0,81,0.00,,,0.00,,2013-07-30 13:43:00,
2013-07-30 08:52:00,67.0,61.0,30.14,SE,127,0.0,1.0,81,0.00,,,0.00,,2013-07-30 13:52:00,
2013-07-30 09:02:00,67.0,61.0,30.14,SE,127,1.0,4.0,80,0.00,,,0.00,,2013-07-30 14:02:00,
2013-07-30 09:12:00,67.0,61.0,30.14,SE,127,1.0,4.0,80,0.00,,,0.00,,2013-07-30 14:12:00,
2013-07-30 09:22:00,67.0,61.0,30.14,SE,127,0.0,1.0,82,0.00,,,0.00,,2013-07-30 14:22:00,
2013-07-30 09:33:00,67.0,62.0,30.13,SE,127,0.0,0.0,83,0.00,,,0.00,,2013-07-30 14:33:00,
2013-07-30 09:43:00,67.0,62.0,30.13,SE,127,0.0,0.0,83,0.00,,,0.00,,2013-07-30 14:43:00,
2013-07-30 09:53:00,67.0,62.0,30.13,SE,127,0.0,0.0,83,0.00,,,0.00,,2013-07-30 14:53:00,
2013-07-30 10:02:00,67.0,62.0,30.13,SE,127,0.0,0.0,83,0.00,,,0.00,,2013-07-30 15:02:00,
2013-07-30 10:12:00,67.0,62.0,30.13,SE,127,0.0,0.0,83,0.00,,,0.00,,2013-07-30 15:12:00,
2013-07-30 10:23:00,67.0,62.0,30.13,SE,127,0.0,1.0,83,0.00,,,0.00,,2013-07-30 15:23:00,
2013-07-30 10:33:00,67.0,61.0,30.13,SE,127,0.0,4.0,82,0.00,,,0.00,,2013-07-30 15:33:00,
2013-07-30 10:43:00,67.0,61.0,30.13,SE,127,0.0,4.0,82,0.00,,,0.00,,2013-07-30 15:43:00,
2013-07-30 10:53:00,68.0,62.0,30.13,SE,127,0.0,1.0,82,0.00,,,0.00,,2013-07-30 15:53:00,
2013-07-30 11:02:00,68.0,63.0,30.14,SE,127,0.0,1.0,84,0.00,,,0.00,,2013-07-30 16:02:00,
2013-07-30 11:12:00,68.0,63.0,30.14,SE,127,0.0,1.0,84,0.00,,,0.00,,2013-07-30 16:12:00,
2013-07-30 11:23:00,67.0,63.0,30.13,SE,127,0.0,0.0,86,0.00,,,0.00,,2013-07-30 16:23:00,
2013-07-30 11:33:00,67.0,63.0,30.13,SE,127,0.0,1.0,87,0.00,,,0.00,,2013-07-30 16:33:00,
2013-07-30 11:44:00,67.0,63.0,30.13,SE,127,0.0,1.0,87,0.00,,,0.00,,2013-07-30 16:44:00,
2013-07-30 11:52:00,67.0,63.0,30.13,SE,127,0.0,1.0,88,0.00,,,0.00,,2013-07-30 16:52:00,
2013-07-30 12:02:00,67.0,64.0,30.13,SE,127,0.0,1.0,89,0.00,,,0.00,,2013-07-30 17:02:00,
2013-07-30 12:12:00,67.0,64.0,30.13,SE,127,0.0,1.0,89,0.00,,,0.00,,2013-07-30 17:12:00,
2013-07-30 12:22:00,67.0,64.0,30.12,SE,127,0.0,0.0,90,0.01,,,0.01,,2013-07-30 17:22:00,
2013-07-30 12:32:00,67.0,64.0,30.12,SE,127,0.0,0.0,91,0.01,,,0.01,,2013-07-30 17:32:00,
2013-07-30 12:43:00,67.0,64.0,30.12,SE,127,0.0,0.0,91,0.01,,,0.01,,2013-07-30 17:43:00,
2013-07-30 12:54:00,67.0,65.0,30.12,SE,127,0.0,1.0,92,0.03,,,0.03,,2013-07-30 17:54:00,
2013-07-30 13:03:00,66.0,64.0,30.11,SE,127,0.0,1.0,92,0.05,,,0.05,,2013-07-30 18:03:00,
2013-07-30 13:12:00,66.0,64.0,30.11,SE,127,0.0,1.0,92,0.05,,,0.05,,2013-07-30 18:12:00,
2013-07-30 13:23:00,66.0,64.0,30.11,SE,127,0.0,0.0,93,0.08,,,0.09,,2013-07-30 18:23:00,
2013-07-30 13:32:00,66.0,64.0,30.11,SE,127,0.0,0.0,93,0.09,,,0.11,,2013-07-30 18:32:00,
2013-07-30 13:43:00,66.0,64.0,30.11,SE,127,0.0,0.0,93,0.09,,,0.11,,2013-07-30 18:43:00,
2013-07-30 13:52:00,66.0,64.0,30.10,SE,127,0.0,1.0,94,0.10,,,0.13,,2013-07-30 18:52:00,
2013-07-30 14:12:00,66.0,64.0,30.10,SE,127,0.0,0.0,94,0.09,,,0.14,,2013-07-30 19:12:00,
2013-07-30 14:22:00,67.0,65.0,30.10,SE,127,0.0,0.0,94,0.05,,,0.14,,2013-07-30 19:22:00,
2013-07-30 14:33:00,67.0,65.0,30.09,SE,127,0.0,1.0,94,0.03,,,0.14,,2013-07-30 19:33:00,
2013-07-30 14:44:00,67.0,65.0,30.09,SE,127,0.0,1.0,94,0.03,,,0.14,,2013-07-30 19:44:00,
2013-07-30 14:52:00,67.0,65.0,30.09,SE,127,0.0,6.0,94,0.01,,,0.14,,2013-07-30 19:52:00,
2013-07-30 15:02:00,67.0,65.0,30.08,SE,125,4.0,10.0,94,0.01,,,0.15,,2013-07-30 20:02:00,
2013-07-30 15:12:00,67.0,65.0,30.08,SE,125,4.0,10.0,94,0.01,,,0.15,,2013-07-30 20:12:00,
2013-07-30 15:22:00,67.0,65.0,30.08,SE,124,4.0,9.0,93,0.01,,,0.15,,2013-07-30 20:22:00,
2013-07-30 15:33:00,67.0,65.0,30.07,SE,131,4.0,10.0,93,0.01,,,0.15,,2013-07-30 20:33:00,
2013-07-30 15:43:00,67.0,65.0,30.07,SE,131,4.0,10.0,93,0.01,,,0.15,,2013-07-30 20:43:00,
2013-07-30 15:52:00,68.0,66.0,30.06,SE,130,2.0,8.0,93,0.02,,,0.16,,2013-07-30 20:52:00,
2013-07-30 16:02:00,68.0,66.0,30.06,SE,129,2.0,6.0,94,0.03,,,0.18,,2013-07-30 21:02:00,
2013-07-30 16:12:00,68.0,66.0,30.06,SE,129,2.0,6.0,94,0.03,,,0.18,,2013-07-30 21:12:00,
2013-07-30 16:22:00,68.0,66.0,30.06,SE,129,0.0,5.0,94,0.03,,,0.18,,2013-07-30 21:22:00,
2013-07-30 16:32:00,68.0,66.0,30.06,SE,129,2.0,6.0,94,0.03,,,0.18,,2013-07-30 21:32:00,
2013-07-30 16:42:00,68.0,66.0,30.06,SE,129,2.0,6.0,94,0.03,,,0.18,,2013-07-30 21:42:00,
2013-07-30 16:53:00,68.0,66.0,30.06,SE,128,2.0,6.0,94,0.02,,,0.18,,2013-07-30 21:53:00,
2013-07-30 17:02:00,69.0,67.0,30.05,ESE,121,3.0,9.0,93,0.01,,,0.19,,2013-07-30 22:02:00,
2013-07-30 17:12:00,69.0,67.0,30.05,ESE,121,3.0,9.0,93,0.01,,,0.19,,2013-07-30 22:12:00,
2013-07-30 17:22:00,69.0,67.0,30.05,ESE,121,3.0,9.0,93,0.01,,,0.19,,2013-07-30 22:22:00,
2013-07-30 17:32:00,69.0,66.0,30.04,SE,127,0.0,1.0,91,0.01,,,0.19,,2013-07-30 22:32:00,
2013-07-30 17:43:00,69.0,66.0,30.04,SE,127,0.0,1.0,91,0.01,,,0.19,,2013-07-30 22:43:00,
2013-07-30 17:53:00,69.0,66.0,30.04,SE,127,2.0,5.0,91,0.01,,,0.19,,2013-07-30 22:53:00,
2013-07-30 18:02:00,69.0,67.0,30.03,ESE,123,3.0,8.0,92,0.00,,,0.19,,2013-07-30 23:02:00,
2013-07-30 18:12:00,69.0,67.0,30.03,ESE,123,3.0,8.0,92,0.00,,,0.19,,2013-07-30 23:12:00,
2013-07-30 18:22:00,69.0,67.0,30.03,ESE,123,1.0,5.0,92,0.00,,,0.19,,2013-07-30 23:22:00,
2013-07-30 18:32:00,69.0,66.0,30.03,SE,126,1.0,10.0,90,0.00,,,0.19,,2013-07-30 23:32:00,
2013-07-30 18:42:00,69.0,66.0,30.03,SE,126,1.0,10.0,90,0.00,,,0.19,,2013-07-30 23:42:00,
2013-07-30 18:53:00,69.0,66.0,30.02,SE,124,1.0,8.0,90,0.00,,,0.19,,2013-07-30 23:53:00,
2013-07-30 19:02:00,69.0,66.0,30.03,ESE,121,1.0,8.0,90,0.00,,,0.19,,2013-07-31 00:02:00,
2013-07-30 19:12:00,69.0,66.0,30.03,ESE,121,1.0,8.0,90,0.00,,,0.19,,2013-07-31 00:12:00,
2013-07-30 19:22:00,68.0,65.0,30.02,SE,128,5.0,9.0,90,0.00,,,0.19,,2013-07-31 00:22:00,
2013-07-30 19:32:00,68.0,65.0,30.03,SE,128,5.0,9.0,90,0.00,,,0.19,,2013-07-31 00:32:00,
2013-07-30 19:43:00,68.0,65.0,30.03,SE,128,5.0,9.0,90,0.00,,,0.19,,2013-07-31 00:43:00,
2013-07-30 19:53:00,68.0,65.0,30.02,SE,124,2.0,9.0,89,0.00,,,0.19,,2013-07-31 00:53:00,
2013-07-30 20:02:00,68.0,65.0,30.02,ESE,123,3.0,10.0,90,0.00,,,0.19,,2013-07-31 01:02:00,
2013-07-30 20:12:00,68.0,65.0,30.02,ESE,123,3.0,10.0,90,0.00,,,0.19,,2013-07-31 01:12:00,
2013-07-30 20:22:00,67.0,64.0,30.03,ESE,123,4.0,8.0,90,0.00,,,0.19,,2013-07-31 01:22:00,
2013-07-30 20:32:00,67.0,64.0,30.03,ESE,123,4.0,8.0,90,0.00,,,0.19,,2013-07-31 01:32:00,
2013-07-30 20:42:00,67.0,64.0,30.02,ESE,123,1.0,9.0,91,0.00,,,0.19,,2013-07-31 01:42:00,
2013-07-30 20:52:00,67.0,65.0,30.02,ESE,123,0.0,4.0,92,0.00,,,0.19,,2013-07-31 01:52:00,
2013-07-30 21:02:00,67.0,65.0,30.02,ESE,123,0.0,4.0,92,0.00,,,0.19,,2013-07-31 02:02:00,
2013-07-30 21:12:00,67.0,65.0,30.02,ESE,123,3.0,7.0,94,0.00,,,0.19,,2013-07-31 02:12:00,
2013-07-30 21:22:00,67.0,65.0,30.02,ESE,123,3.0,7.0,94,0.00,,,0.19,,2013-07-31 02:22:00,
2013-07-30 21:32:00,67.0,65.0,30.03,SE,125,3.0,8.0,94,0.00,,,0.19,,2013-07-31 02:32:00,
2013-07-30 21:42:00,67.0,65.0,30.03,SE,125,3.0,8.0,94,0.00,,,0.19,,2013-07-31 02:42:00,
2013-07-30 21:52:00,66.0,65.0,30.03,SE,126,3.0,8.0,95,0.01,,,0.20,,2013-07-31 02:52:00,
2013-07-30 22:02:00,66.0,65.0,30.04,SE,126,2.0,7.0,95,0.01,,,0.20,,2013-07-31 03:02:00,
2013-07-30 22:12:00,66.0,65.0,30.04,SE,126,2.0,7.0,95,0.01,,,0.20,,2013-07-31 03:12:00,
2013-07-30 22:22:00,66.0,65.0,30.03,SE,132,4.0,7.0,95,0.01,,,0.20,,2013-07-31 03:22:00,
2013-07-30 22:32:00,66.0,65.0,30.03,SE,132,4.0,7.0,95,0.01,,,0.20,,2013-07-31 03:32:00,
2013-07-30 22:42:00,66.0,65.0,30.03,SE,136,4.0,8.0,96,0.00,,,0.20,,2013-07-31 03:42:00,
2013-07-30 22:52:00,66.0,65.0,30.03,SE,139,4.0,7.0,96,0.00,,,0.20,,2013-07-31 03:52:00,
2013-07-30 23:01:00,66.0,65.0,30.02,SE,140,4.0,7.0,96,0.00,,,0.20,,2013-07-31 04:01:00,
2013-07-30 23:02:00,66.0,65.0,30.03,SE,140,4.0,8.0,96,0.00,,,0.20,,2013-07-31 04:02:00,
2013-07-30 23:12:00,66.0,65.0,30.03,SE,140,4.0,8.0,96,0.00,,,0.20,,2013-07-31 04:12:00,
2013-07-30 23:22:00,66.0,65.0,30.02,SE,140,4.0,7.0,96,0.00,,,0.20,,2013-07-31 04:22:00,
2013-07-30 23:32:00,66.0,65.0,30.02,SE,140,4.0,7.0,96,0.00,,,0.20,,2013-07-31 04:32:00,
2013-07-30 23:42:00,66.0,65.0,30.02,SE,140,4.0,7.0,96,0.00,,,0.20,,2013-07-31 04:42:00,
2013-07-30 23:52:00,66.0,65.0,30.02,SE,140,4.0,7.0,96,0.00,,,0.20,,2013-07-31 04:52:00,